Regional Weather Roundup
Issued by NWS Northern Indiana

Home | Current Version | Previous Version | Graphics & Text | Print | Product List | Glossary On
Versions: 1 2 3 4 5 6 7 8 9 10 11 12 13 14 15 16 17 18 19 20 21 22 23 24 25 26 27 28 29 30 31 32 33 34 35 36 37 38 39 40 41 42 43 44 45 46 47 48 49 50
000
ASUS43 KIWX 230200
RWRIWX

KIWX WEATHER ROUNDUP
NATIONAL WEATHER SERVICE NORTHERN INDIANA
1000 PM EDT MON SEP 22 2014

NOTE: "FAIR" INDICATES FEW OR NO CLOUDS BELOW 12,000 FEET WITH NO
SIGNIFICANT WEATHER AND/OR OBSTRUCTIONS TO VISIBILITY.

* THESE STATIONS ARE NOT UNDER NWS QUALITY CONTROL. THEY ALSO MAY NOT
  REPORT WEATHER SUCH AS PRECIPITATION OR FOG.

INZ001>027-230300-
NORTHERN INDIANA

CITY           SKY/WX    TMP DP  RH WIND       PRES   REMARKS
GARY*          CLEAR     48  46  93 VRB5      30.26S
VALPARAISO     CLEAR     49  44  83 CALM      30.27S
SOUTH BEND     CLEAR     50  45  83 CALM      30.28R
GOSHEN         CLEAR    N/A N/A N/A N5        30.27R
ANGOLA*        CLEAR     52  46  82 CALM      30.27R
FORT WAYNE     CLEAR     53  45  74 NW5       30.27R
PERU/GRISSOM   CLEAR     55  49  81 N6        30.27R

$$
INZ028>050-230300-
CENTRAL INDIANA

CITY           SKY/WX    TMP DP  RH WIND       PRES   REMARKS
LAFAYETTE      CLEAR     52  47  83 CALM      30.27R
KOKOMO*        CLEAR     52  45  76 NW3       30.27R
MUNCIE*        CLEAR     48  44  86 CALM      30.26R
INDIANAPOLIS   CLEAR     56  44  64 N6        30.25R

$$
MIZ043>046-050>051-056>058-064>065-071>073-077>080-230300-
SOUTHWEST LOWER MICHIGAN

CITY           SKY/WX    TMP DP  RH WIND       PRES   REMARKS
BATTLE CREEK   CLEAR     50  44  80 CALM      30.27R
BENTON HARBOR  CLEAR     46  45  96 E3        30.26R
COLDWATER*     CLEAR     50  47  88 CALM      30.27R
HILLSDALE*     CLEAR     47  46  97 CALM      30.26R
HOLLAND        CLEAR     52  47  83 CALM      30.26R
GRAND RAPIDS   CLEAR     51  47  86 SW3       30.25R
KALAMAZOO      CLEAR     50  44  80 CALM      30.27R
STURGIS*       CLEAR     48  46  93 CALM      30.27R
THREE RIVERS*  FAIR      48  44  87 CALM      30.28R

$$
OHZ001>008-015>018-024>025-230300-
NORTHWEST OHIO

CITY           SKY/WX    TMP DP  RH WIND       PRES   REMARKS
DEFIANCE       CLEAR    N/A N/A N/A CALM      30.26R
FINDLAY        CLEAR     53  43  68 CALM      30.24R
TOLEDO EXPRESS CLEAR     48  46  93 CALM      30.25R
TOLEDO METCALF CLEAR     54  42  64 CALM      30.26R
LIMA           CLEAR     49  44  83 CALM      30.25R

$$
AND FOR LAKE MICHIGAN COASTAL AND OPEN LAKE BUOY OBSERVATIONS

STATION/POSITION TEMP    WIND        PRES    VSBY  WAVE
                 AIR SEA DIR/SP/G                  HT/PER
                 (F)     (DEG/KT/KT) (MB)    (MI)  (FT/S)
CALUMET HARBOR    58     160/  4/  5 1023.1R
SAINT JOSEPH      54        CALM     1024.7S
SOUTH LAKE BUOY   60 62  180/ 10/ 12 1023.8R         1/ 6
4 MI NW BRIDGMAN  58 65  140/  8/ 10   N/A           1/ 5
MICHIGAN CITY     58 64  170/  8/ 10   N/A           2/ 6

$$
&&



USA.gov is the U.S. government's official web portal to all federal, state and local government web resources and services.